Flugplatz Gunzenhausen-Reutberg (EDMH)

Hier findest Du alle Informationen zum Flugplatz Gunzenhausen-Reutberg (EDMH).

Informationen für Piloten zum Flugplatz Gunzenhausen-Reutberg

Hier findest Du alle relevanten Informationen, die Du als Pilot benötigst, um Gunzenhausen-Reutberg anzufliegen.

Flugplatz: Gunzenhausen-Reutberg ICAO-Code: EDMH
Frequenz Turm: 118,550 Mhz GAFOR Gebiet: 55
Frequenz Ground: 118,550 Mhz Mogas: nein
Platzrunde: SE 2300 ft Landegebühr: -
Platzhöhe: - Sunrise: 06:52 Uhr UTC
Pisten: 06/24 - 530 m x 15 m, ASPH Sunset: 16:06 Uhr UTC

Mitglieder, die in Gunzenhausen-Reutberg fliegen

Flugwetter am Flugplatz Gunzenhausen-Reutberg

Die METAR Information stammen aus EDDN (48.18 km entfernt).

METAR Code:
2020/01/26 01:20
EDDN 260120Z 04001KT 0100 R28/P2000N FZFG VV/// M01/M01 Q1020

Flugschulen am Flugplatz Gunzenhausen-Reutberg

Am Flugplatz Gunzenhausen-Reutberg gibt es leider keine Flugschule.

Benachbarte Flugplätze und Flugschulen

Es gibt 23 weitere Flugplätze in einem Umkreis von 50 km um den Flugplatz Gunzenhausen-Reutberg.

Jetzt anmelden

Passwort vergessen

Umfrage Archiv

Lasst Ihr Euch bei Überlandflügen von FIS begleiten?

Ja, immer!
42.8 %
Ja, unregelmäßig!
29.5 %
Ja, aber nur selten!
17.5 %
Nein, nie!
10.2 %
Stimmen: 166 | Diskussion
Anzeige: Roland Aircraft
Statistik Alle Mitglieder

Aktuell sind 31 Besucher online, davon 2 Mitglieder und 29 Gäste.


Mitglieder online:
aviatrix  Heli 

Anzeige: VFR Sprechfunk Simulator


Anzeige: Pocket FMS